[[{"header":{"parameterUnit":"m.s-1","parameterCategory":1,"la1":30.2991,"la2":30.254,"lo1":-89.0895,"lo2":-89.0444,"dy":0.0017,"dx":0.0017,"nx":28,"ny":28,"refTime":"2023-10-19T21:00:00:Z","depth":0,"parameterNumber":2,"parameterNumberName":"U-component_of_WINDS"},"data":[0,0,0,0,0,0,0,0,0,0,0,0,0,0,0,0,0,0,0,0,0,0,0,0,0,0,0,0,0,0,0,0,0,0,0,0,0,0,0,0,0,0,0,0,0,0,0,0,0,0,0,0,0,0,0,0,0,0,4.2536,4.2536,0,4.2559,4.2559,4.256,4.25,4.2498,4.2497,4.2495,4.2519,4.2522,4.2524,0,0,0,0,0,0,0,0,0,0,0,0,0,4.2445,4.2447,4.2536,4.2536,4.2536,4.2559,4.2559,4.256,4.2501,4.2498,4.2496,4.2494,4.2519,4.2521,4.2524,0,0,0,0,0,0,0,0,0,0,0,0,0,4.2478,4.2447,4.2536,4.251,4.2508,4.2559,4.2559,4.256,4.2501,4.2498,4.2496,4.2493,4.2518,4.2521,4.2525,4.2603,0,0,4.2536,4.2537,0,0,0,0,0,0,0,0,4.2476,4.2481,4.2513,4.2512,4.2509,4.2524,4.2536,4.2574,4.2502,4.2504,4.2495,4.2492,4.2523,4.2526,4.2537,4.2604,4.2605,4.2536,4.2538,4.254,4.2541,0,0,0,0,0,0,0,4.2474,4.248,4.2545,4.2514,4.2511,4.2498,4.25,4.2543,4.2529,4.2503,4.2499,4.2503,4.2522,4.2533,4.2537,4.2605,4.2536,4.2539,4.2541,4.2543,4.2745,4.2748,0,0,0,0,0,0,4.2475,4.2478,4.2544,4.2546,4.2485,4.2502,4.2504,4.2522,4.2528,4.2526,4.2505,4.25,4.2529,4.2533,4.2537,4.2634,4.254,4.2543,4.2545,4.2741,4.2745,4.2749,0,0,0,0,0,0,4.2473,4.2481,4.2543,4.2511,4.2518,4.2507,4.2528,4.2524,4.2536,4.2529,4.2527,4.2519,4.2527,4.2532,4.2588,4.2634,4.2545,4.2548,4.2738,4.2743,4.2747,4.2825,0,0,0,0,0,0,4.247,4.2481,4.2509,4.2512,4.252,4.2593,4.253,4.2526,4.2542,4.2535,4.2542,4.2541,4.2525,4.2583,4.2592,4.2637,4.2551,4.2734,4.274,4.2746,4.2819,4.2832,4.2844,0,0,0,0,0,4.2467,4.2528,4.251,4.2519,4.2555,4.2595,4.26,4.258,4.2546,4.2575,4.2572,4.2541,4.2627,4.259,4.2599,4.2646,4.2731,4.2738,4.2745,4.2813,4.283,4.2844,0,0,0,0,0,0,4.2529,4.2528,4.2508,4.2572,4.2585,4.2585,4.2621,4.2597,4.262,4.2613,4.2587,4.259,4.2652,4.2654,4.2612,4.2725,4.2673,4.2683,4.2722,4.2738,4.275,4.275,4.2554,0,0,0,0,0,4.2551,4.2583,4.258,4.2637,4.2644,4.2632,4.2649,4.2633,4.2645,4.265,4.2651,4.2664,4.2695,4.2716,4.2743,4.2818,4.2822,4.2856,4.2868,4.2878,4.2888,4.2934,4.2951,4.2773,4.2773,4.2772,0,0,4.2595,4.2598,4.262,4.265,4.2657,4.2694,4.2637,4.2676,4.2704,4.2656,4.2711,4.2712,4.2726,4.2793,4.2823,4.2797,4.2938,4.2888,4.2896,4.29,4.2943,4.296,4.2975,4.2778,4.2777,4.2776,0,0,4.2695,4.2698,4.2749,4.2759,4.2772,4.2765,4.2777,4.2783,4.2783,4.2837,4.2804,4.2837,4.2888,4.2902,4.2915,4.3026,4.3,4.3035,4.3102,4.3147,4.3161,4.3174,4.3219,4.3234,4.3044,4.3044,4.3045,0,4.2748,4.28,4.2778,4.2822,4.2838,4.2798,4.2851,4.2862,4.2884,4.2897,4.2867,4.2936,4.2942,4.3015,4.3043,4.3053,4.307,4.3035,4.3161,4.3173,4.3185,4.3227,4.3243,4.3049,4.3049,4.3048,4.3048,0,4.2868,4.2906,4.2945,4.297,4.299,4.3038,4.3025,4.3049,4.3033,4.3029,4.3088,4.3094,4.3125,4.3141,4.3124,4.3214,4.3198,4.3165,4.3113,4.3207,4.3247,4.3262,4.3056,4.3054,4.3053,4.3052,0,0,4.3006,4.3021,4.3036,4.305,4.3064,4.3093,4.3141,4.3173,4.3196,4.3213,4.3256,4.3304,4.3275,4.3291,4.3275,4.3314,4.3409,4.3277,4.3277,4.3306,4.3515,4.3543,4.3561,4.3391,4.3394,4.3396,4.3515,0,4.3109,4.3192,4.3176,4.3258,4.3296,4.326,4.3303,4.3318,4.3317,4.335,4.3348,4.3385,4.3342,4.3352,4.3389,4.339,4.3451,4.338,4.3434,4.3436,4.3435,4.3581,4.3609,4.3721,4.353,4.3533,4.3534,0,4.3239,4.3265,4.3352,4.3365,4.338,4.3419,4.345,4.348,4.3498,4.3495,4.3515,4.3494,4.3546,4.3492,4.3565,4.3517,4.3538,4.3542,4.3546,4.3553,4.3493,4.3596,4.3756,4.3775,4.3558,4.3556,4.3554,0,4.3339,4.3393,4.3454,4.3466,4.3482,4.3511,4.3519,4.3534,4.3556,4.3583,4.3598,4.3629,4.3648,4.3675,4.3664,4.3625,4.3742,4.3685,4.3744,4.3745,4.3772,4.3771,4.3942,4.3779,4.3779,4.3778,4.3778,0,4.3457,4.3513,4.35,4.3538,4.3601,4.3582,4.3646,4.365,4.3664,4.3704,4.3674,4.3713,4.3694,4.3733,4.3724,4.379,4.3797,4.3799,4.3797,4.3804,4.3804,4.3819,4.3813,4.3783,4.3782,4.3781,4.378,0,4.3579,4.3572,4.3637,4.3648,4.3652,4.3699,4.3709,4.3746,4.3744,4.3796,4.3807,4.3804,4.3848,4.3839,4.3886,4.3882,4.3965,4.3951,4.396,4.3958,4.4019,4.4015,4.4209,4.4235,4.4052,4.4053,4.4055,0,4.3657,4.37,4.3717,4.3742,4.3753,4.3793,4.3817,4.3801,4.3827,4.3854,4.3889,4.393,4.3963,4.4035,4.4038,4.4076,4.4066,4.4131,4.4071,4.4079,4.4073,4.4072,4.4079,4.4144,4.4146,4.4147,4.4149,0,4.3798,4.3794,4.3828,4.3864,4.3893,4.3919,4.3943,4.3966,4.3953,4.3984,4.4029,4.4055,4.4106,4.4149,4.4185,4.4195,4.4173,4.4167,4.4184,4.4193,4.4199,4.4202,4.3997,4.4164,4.4162,4.4161,4.416,4.416,4.3904,4.3942,4.3962,4.4003,4.402,4.4045,4.4082,4.4086,4.4123,4.4164,4.4153,4.4206,4.4228,4.4274,4.4289,4.4332,4.4308,4.433,4.4337,4.4344,4.4354,4.4189,4.4337,4.4337,4.4337,4.4336,4.4336,0,4.4048,4.406,4.4098,4.4134,4.4168,4.4142,4.4169,4.4199,4.4246,4.4268,4.4302,4.4357,4.44,4.4408,4.445,4.4484,4.4474,4.4495,4.4495,4.4499,4.437,4.4354,4.4503,4.4503,4.4503,4.4503,4.4503,4.4503,4.4127,4.4193,4.4192,4.4268,4.4279,4.4332,4.435,4.4374,4.4392,4.4456,4.4492,4.4497,4.4515,4.4559,4.4598,4.46,4.4619,4.4645,4.4643,4.4523,4.4507,4.4491,4.4476,4.4648,4.4649,4.4769,4.477,4.4771]},{"header":{"parameterUnit":"m.s-1","parameterCategory":1,"la1":30.2991,"la2":30.254,"lo1":-89.0895,"lo2":-89.0444,"dy":0.0017,"dx":0.0017,"nx":28,"ny":28,"refTime":"2023-10-19T21:00:00:Z","depth":0,"parameterNumber":3,"parameterNumberName":"V-component_of_WINDS"},"data":[0,0,0,0,0,0,0,0,0,0,0,0,0,0,0,0,0,0,0,0,0,0,0,0,0,0,0,0,0,0,0,0,0,0,0,0,0,0,0,0,0,0,0,0,0,0,0,0,0,0,0,0,0,0,0,0,0,0,1.0391,1.0392,0,1.0532,1.0533,1.0535,1.0528,1.0526,1.0524,1.0523,1.0669,1.0675,1.068,0,0,0,0,0,0,0,0,0,0,0,0,0,1.0117,1.0122,1.0391,1.0392,1.0394,1.0531,1.0533,1.0535,1.0529,1.0526,1.0524,1.0522,1.0667,1.0674,1.0681,0,0,0,0,0,0,0,0,0,0,0,0,0,1.0245,1.0123,1.039,1.0407,1.041,1.0531,1.0533,1.0536,1.0529,1.0526,1.0523,1.0521,1.0665,1.0673,1.0682,1.0795,0,0,1.0708,1.0712,0,0,0,0,0,0,0,0,1.0237,1.0255,1.0403,1.0406,1.041,1.0509,1.049,1.0623,1.053,1.0484,1.0523,1.0519,1.0619,1.0631,1.0664,1.0802,1.0809,1.0709,1.0714,1.0718,1.072,0,0,0,0,0,0,0,1.0228,1.0249,1.0446,1.0405,1.041,1.0408,1.0423,1.0516,1.0567,1.0488,1.0488,1.0505,1.062,1.0656,1.0667,1.0811,1.0709,1.0717,1.0722,1.0725,1.1047,1.105,0,0,0,0,0,0,1.0216,1.0241,1.0442,1.0451,1.0314,1.0416,1.0432,1.0481,1.0566,1.0576,1.0507,1.0504,1.0642,1.0657,1.0672,1.0809,1.0718,1.0726,1.0731,1.1043,1.1048,1.1051,0,0,0,0,0,0,1.021,1.0234,1.0436,1.0346,1.0372,1.0424,1.0478,1.0485,1.0521,1.058,1.0589,1.0534,1.0641,1.066,1.0764,1.0814,1.073,1.0738,1.104,1.1045,1.1049,1.1084,0,0,0,0,0,0,1.0202,1.0232,1.0275,1.0347,1.0376,1.0526,1.0481,1.049,1.0535,1.0532,1.0608,1.0617,1.064,1.0751,1.0773,1.0824,1.0745,1.1035,1.1042,1.1048,1.1079,1.109,1.1099,0,0,0,0,0,1.0192,1.028,1.0277,1.0302,1.0432,1.0529,1.0545,1.0569,1.0539,1.0583,1.0621,1.0615,1.0805,1.0762,1.0786,1.0841,1.1032,1.104,1.1047,1.1074,1.1088,1.1099,0,0,0,0,0,0,1.0214,1.029,1.0288,1.0402,1.0458,1.0527,1.0584,1.0583,1.065,1.0644,1.0671,1.0688,1.0792,1.0827,1.0777,1.0954,1.0915,1.0928,1.0927,1.094,1.095,1.0939,1.0752,0,0,0,0,0,1.0232,1.0304,1.0367,1.0461,1.0489,1.0532,1.0575,1.0587,1.0648,1.0672,1.0718,1.0777,1.085,1.0897,1.0968,1.1084,1.1099,1.1134,1.1144,1.1152,1.1162,1.1224,1.1239,1.1076,1.1076,1.1076,0,0,1.027,1.0321,1.0364,1.0467,1.0512,1.0585,1.0552,1.0632,1.0686,1.0685,1.0784,1.082,1.0888,1.0997,1.1048,1.103,1.1211,1.1162,1.1168,1.1174,1.1233,1.1249,1.1262,1.1081,1.108,1.1079,0,0,1.0377,1.0423,1.0505,1.0551,1.062,1.0647,1.0667,1.0736,1.0759,1.086,1.0859,1.0925,1.105,1.1098,1.1138,1.1261,1.1257,1.1284,1.1336,1.1396,1.1409,1.1421,1.1462,1.1477,1.1294,1.1294,1.1294,0,1.0415,1.0525,1.0548,1.0627,1.0672,1.0672,1.0756,1.08,1.0889,1.0919,1.0898,1.1053,1.11,1.1219,1.1249,1.1283,1.1305,1.1275,1.1405,1.1417,1.1428,1.1468,1.1484,1.1297,1.1296,1.1296,1.1296,0,1.0569,1.0645,1.0704,1.0787,1.0839,1.092,1.0955,1.1004,1.1012,1.1041,1.1143,1.1198,1.1278,1.1308,1.1318,1.1429,1.1415,1.1399,1.136,1.1446,1.1484,1.15,1.13,1.1299,1.1299,1.1298,0,0,1.0693,1.0787,1.0808,1.0845,1.0921,1.098,1.1061,1.1139,1.118,1.1241,1.1308,1.1414,1.1399,1.1445,1.146,1.1513,1.1604,1.149,1.1492,1.1508,1.1727,1.1737,1.1755,1.1602,1.1605,1.1607,1.1721,0,1.0805,1.0948,1.097,1.1095,1.1165,1.1166,1.1236,1.129,1.1319,1.1383,1.1416,1.1489,1.1465,1.1492,1.1545,1.1581,1.1648,1.1574,1.1664,1.1667,1.1645,1.1775,1.1786,1.1891,1.1736,1.1738,1.174,0,1.0956,1.1019,1.1151,1.1215,1.1245,1.1308,1.1379,1.1441,1.1501,1.1519,1.1569,1.1577,1.1661,1.1618,1.1733,1.1682,1.172,1.1743,1.1748,1.1756,1.1707,1.1784,1.1925,1.1939,1.1764,1.1762,1.1761,0,1.103,1.1149,1.1242,1.1274,1.1352,1.1396,1.143,1.1488,1.1533,1.1596,1.1625,1.1698,1.1737,1.1793,1.182,1.1787,1.1931,1.1892,1.1947,1.1946,1.1977,1.1974,1.2123,1.2004,1.2004,1.2004,1.2003,0,1.1152,1.1232,1.1276,1.1334,1.1423,1.1448,1.1536,1.1569,1.162,1.1683,1.169,1.1749,1.1782,1.1847,1.1869,1.1958,1.1977,1.1992,1.1997,1.1991,1.1988,1.2015,1.2008,1.2008,1.2007,1.2006,1.2005,0,1.125,1.1283,1.1384,1.1449,1.1468,1.153,1.1586,1.1641,1.167,1.175,1.177,1.1816,1.1892,1.1924,1.2018,1.2032,1.2135,1.2135,1.2114,1.2115,1.2167,1.2161,1.2337,1.236,1.2228,1.2229,1.223,0,1.1325,1.1386,1.1457,1.15,1.1535,1.1604,1.1649,1.1676,1.1723,1.1795,1.1842,1.1917,1.1979,1.21,1.2141,1.2212,1.2213,1.227,1.2224,1.2215,1.2211,1.2206,1.2211,1.2277,1.2279,1.228,1.2281,0,1.1453,1.1466,1.1531,1.1601,1.1654,1.1711,1.1766,1.1801,1.1836,1.1888,1.1965,1.2013,1.2108,1.2182,1.2255,1.2291,1.2291,1.2295,1.2311,1.2304,1.2289,1.2295,1.2134,1.229,1.2289,1.2289,1.2288,1.2288,1.1541,1.1594,1.1652,1.1723,1.1767,1.1819,1.1873,1.1908,1.1973,1.2051,1.2063,1.2145,1.2203,1.2301,1.2339,1.2403,1.2389,1.2413,1.2418,1.2423,1.2425,1.228,1.2417,1.2417,1.2416,1.2416,1.2416,0,1.1667,1.1704,1.177,1.1846,1.1902,1.1897,1.1958,1.2005,1.2076,1.213,1.219,1.2278,1.2349,1.2396,1.2468,1.251,1.2512,1.2528,1.2524,1.2532,1.2435,1.2413,1.2525,1.2525,1.2525,1.2525,1.2525,1.2525,1.1739,1.1829,1.1849,1.196,1.1997,1.2076,1.2111,1.2158,1.22,1.2298,1.2357,1.2387,1.2437,1.2513,1.2578,1.259,1.2615,1.2632,1.2642,1.2551,1.2539,1.2528,1.2507,1.2637,1.2638,1.2733,1.2734,1.2735]}]]